Regional Weather Roundup
Issued by NWS State College, PA

Home | Current Version | Previous Version | Text Only | Print | Product List | Glossary Off
Versions: 1 2 3 4 5 6 7 8 9 10 11 12 13 14 15 16 17 18 19 20 21 22 23 24 25 26 27 28 29 30 31 32 33 34 35 36 37 38 39 40 41 42 43 44 45 46 47 48 49 50

000
ASUS41 KCTP 040410
RWRCTP

REGIONAL WEATHER ROUNDUP
NATIONAL WEATHER SERVICE STATE COLLEGE PA
1200 AM EDT FRI SEP 04 2015

Note: "fair" indicates few or no clouds below 12,000 feet with no
significant weather and/or obstructions to visibility.

* = STATION THAT DOES NOT REPORT PRECIPITATION /E.G. RAIN...SNOW...ETC/
    THUNDER OR FOG.

PAZ002>004-007>009-013>016-020>023-029>032-040500-
WESTERN PENNSYLVANIA

CITY           SKY/WX    TMP DP  RH WIND       PRES   REMARKS
ERIE           MOCLDY    73  68  84 S6        29.96S HAZE
MEADVILLE      PTCLDY    70  67  90 CALM      30.01R FOG
FRANKLIN*      PTCLDY    66  64  94 CALM      30.03R
NEW CASTLE     FAIR      69  69 100 CALM      30.01R
BEAVER COUNTY  NOT AVBL
BUTLER*        MOCLDY    70  66  88 CALM      30.03R
PITTSBURGH INT CLOUDY    71  65  81 W7        30.00R
PITTSBURGH     MOCLDY    72  63  73 NW5       29.99R
INDIANA*       CLEAR     70  68  94 CALM      30.04R
LATROBE        NOT AVBL
WASHINGTON CO* PTCLDY    66  64  94 CALM      30.01R
$$

PAZ004>006-010>012-017>019-024>028-033>037-041-042-045-046-049>053-040500-
CENTRAL PENNSYLVANIA

CITY           SKY/WX    TMP DP  RH WIND       PRES   REMARKS
BRADFORD       PTCLDY    65  63  93 CALM      30.04R FOG
DUBOIS         PTCLDY    66  62  87 E6        30.01R
CLEARFIELD     PTCLDY    66  63  90 N5        30.01R
JOHNSTOWN      MOCLDY    70  65  84 SW3       30.04R
ALTOONA        CLOUDY    69  65  86 CALM      30.00R
STATE COLLEGE  PTCLDY    69  65  89 CALM      29.99R
WILLIAMSPORT   MOCLDY    70  67  90 CALM      29.94R
SELINSGROVE    PTCLDY    70  68  93 CALM      29.95R FOG
FT INDIANTOWN  PTCLDY    73  67  79 NW2       29.93R
CAPITAL CITY   MOCLDY    74  67  78 SW5       29.92R
HARRISBURG     MOCLDY    76  68  76 CALM      29.91R
YORK           MOCLDY    69  67  93 CALM      29.93R
$$

PAZ038>040-043-044-047-048-054-055-060>062-067>071-040500-
EASTERN PENNSYLVANIA

CITY           SKY/WX    TMP DP  RH WIND       PRES   REMARKS
SCRANTON       PTCLDY    71  66  84 E5        29.95S
MOUNT POCONO   PTCLDY    71  65  81 NE6       30.00R
ALLENTOWN      CLEAR     71  66  84 N5        29.91F
QUAKERTOWN*    PTCLDY    73  66  78 CALM      29.92S
READING        PTCLDY    75  67  76 CALM      29.90S
LANCASTER      MOCLDY    74  66  76 N3        29.91S
COATESVILLE    PTCLDY    75  68  78 CALM      29.93R
POTTSTOWN      PTCLDY    72  70  93 CALM      29.92S
BLUE BELL      PTCLDY    75  72  88 CALM      29.89F
DOYLESTOWN     PTCLDY    74  67  78 CALM      29.90S
WILLOW GROVE   NOT AVBL
NORTH PHILA    PTCLDY    81  66  60 CALM      29.90S
PHILADELPHIA   MOCLDY    80  69  69 SE3       29.90S
$$



USA.gov is the U.S. government's official web portal to all federal, state and local government web resources and services.